Regional Weather Roundup
Issued by NWS

Home | Current Version | Previous Version | Text Only | Print | Product List | Glossary Off
Versions: 1 2 3 4 5 6 7 8 9 10 11 12 13 14 15 16 17 18 19 20 21 22 23 24 25 26 27 28 29 30 31 32 33 34 35 36 37 38 39 40 41 42 43 44 45 46 47 48 49 50

000
ASUS43 KOAX 010202
RWRNE

WEATHER ROUNDUP FOR NEBRASKA
NATIONAL WEATHER SERVICE OMAHA NE
900 PM CDT SAT APR 30 2016

NOTES: SATELLITE DATA IS BEING USED TO AUGMENT CLOUD COVER ABOVE
       12000 FEET.
       "FAIR" INDICATES FEW OR NO CLOUDS BELOW 12,000 FEET WITH NO
       SIGNIFICANT WEATHER AND/OR OBSTRUCTIONS TO VISIBILITY.

  * THESE STATIONS DO NOT REPORT WEATHER SUCH AS RAIN...SNOW OR FOG.

NEZ001>004-019>022-054>056-010300-
NEBRASKA PANHANDLE

CITY           SKY/WX    TMP DP  RH WIND       PRES   REMARKS
SCOTTSBLUFF    LGT RAIN  37  32  82 N9        30.13R WCI  30
ALLIANCE       LGT RAIN  34  33  96 N18       30.07R WCI  23
CHADRON        LGT RAIN  43  34  70 NE24G30   30.13R
KIMBALL        LGT SNOW  33  33 100 N16       30.09R WCI  22
SIDNEY         LGT SNOW  33  32  96 N24       30.05R FOG     WCI  20
$$

NEZ057>060-069>072-079>082-010300-
SOUTHWEST NEBRASKA

CITY           SKY/WX    TMP DP  RH WIND       PRES   REMARKS
NORTH PLATTE   LGT SNOW  34  32  92 N20       29.94R FOG     WCI  23
IMPERIAL       LGT RAIN  35  33  92 N17       29.98R FOG     WCI  25
LEXINGTON      CLOUDY    38  36  90 N14       29.90R WCI  30
MCCOOK         CLOUDY    39  34  82 N15       29.93R WCI  31
OGALLALA       DRIZZLE   36  33  90 N16G22    30.00R WCI  26
$$

NEZ005>010-023>029-035>040-094-010300-
NORTH CENTRAL NEBRASKA

CITY           SKY/WX    TMP DP  RH WIND       PRES   REMARKS
VALENTINE      LGT RAIN  39  36  89 NE18G28   30.05R WCI  30
AINSWORTH      LGT RAIN  39  38  96 NE24G30   30.01R WCI  28
BROKEN BOW     LGT RAIN  41  39  93 N12       29.89R FOG
O`NEILL        DRIZZLE   42  40  94 NE18G25   29.96R
ORD            LGT RAIN  44  42  93 NE15      29.88R
$$

NEZ041-046>049-061>064-073>077-083>087-010300-
SOUTH CENTRAL NEBRASKA

CITY           SKY/WX    TMP DP  RH WIND       PRES   REMARKS
GRAND ISLAND   LGT RAIN  46  45  96 N12       29.84R FOG
AURORA         DRIZZLE   47  47  99 N8        29.83R
HASTINGS       CLOUDY    45  43  93 NW9       29.84R
HEBRON         CLOUDY    50  45  83 W3        29.83R
HOLDREGE       CLOUDY    41  38  91 NW9       29.87R
KEARNEY *      CLOUDY    43  39  87 NW10      29.87R
YORK           LGT RAIN  48  46  93 NE12      29.82R
$$

NEZ011>018-030>034-042>045-010300-
NORTHEAST NEBRASKA

CITY           SKY/WX    TMP DP  RH WIND       PRES   REMARKS
NORFOLK        LGT RAIN  44  42  93 NE13      29.88R FOG
ALBION         DRIZZLE   44  42  93 NE16G25   29.88R
BLAIR          CLOUDY    48  47  96 NE13      29.83R FOG
COLUMBUS *     CLOUDY    46  39  76 NE15G21   29.85R
FREMONT        LGT RAIN  48  48  99 NE7       29.84R
TEKAMAH        CLOUDY    48  46  93 NE14      29.86R
WAYNE          LGT RAIN  44  43  95 NE17G23   29.91R
$$

NEZ050>053-065>068-078-088>093-010300-
SOUTHEAST NEBRASKA

CITY           SKY/WX    TMP DP  RH WIND       PRES   REMARKS
LINCOLN        LGT RAIN  51  49  92 NE8       29.82R
OMAHA EPPLEY   CLOUDY    50  47  89 E17G24    29.83R
BEATRICE       CLOUDY    52  48  86 SW3       29.81R
FALLS CITY     CLOUDY    56  49  77 W6        29.80R
NEBRASKA CITY  CLOUDY    52  52 100 CALM      29.81R
$$

NEZ044-045-051>053-067-010300-
OMAHA AREA

CITY           SKY/WX    TMP DP  RH WIND       PRES   REMARKS
OMAHA EPPLEY   CLOUDY    50  47  89 E17G24    29.83R
BLAIR          CLOUDY    48  47  96 NE13      29.83R FOG
FREMONT        LGT RAIN  48  48  99 NE7       29.84R
MILLARD        DRIZZLE   50  48  92 E5        29.83R
OFFUTT AFB     RAIN      50  50  99 NE9       29.81R FOG
WAHOO          CLOUDY    49  47  95 E13       29.83R
$$



USA.gov is the U.S. government's official web portal to all federal, state and local government web resources and services.